TimeMDT,TemperatureF,Dew PointF,Humidity,Sea Level PressureIn,VisibilityMPH,Wind Direction,Wind SpeedMPH,Gust SpeedMPH,PrecipitationIn,Events,Conditions,WindDirDegrees,DateUTC
12:15 AM,46.4,28.0,49,29.90,10.0,West,13.8,-,N/A,,Scattered Clouds,260,2013-04-10 06:15:00
12:35 AM,46.8,28.0,48,29.90,10.0,West,12.7,-,N/A,,Scattered Clouds,260,2013-04-10 06:35:00
12:55 AM,46.8,27.7,47,29.91,10.0,West,15.0,-,N/A,,Clear,280,2013-04-10 06:55:00
1:15 AM,46.2,28.2,50,29.91,10.0,West,9.2,-,N/A,,Clear,270,2013-04-10 07:15:00
1:55 AM,45.3,27.3,49,29.91,10.0,West,8.1,-,N/A,,Clear,280,2013-04-10 07:55:00
2:15 AM,45.1,27.0,49,29.90,10.0,West,11.5,-,N/A,,Clear,270,2013-04-10 08:15:00
2:35 AM,43.9,26.6,51,29.90,10.0,West,10.4,-,N/A,,Clear,270,2013-04-10 08:35:00
2:55 AM,43.2,26.1,51,29.90,10.0,West,8.1,-,N/A,,Clear,270,2013-04-10 08:55:00
3:15 AM,42.6,25.9,52,29.90,10.0,WSW,9.2,-,N/A,,Clear,250,2013-04-10 09:15:00
3:35 AM,42.6,26.2,52,29.90,10.0,West,9.2,-,N/A,,Clear,260,2013-04-10 09:35:00
3:55 AM,40.6,26.4,57,29.90,10.0,West,8.1,-,N/A,,Clear,270,2013-04-10 09:55:00
4:15 AM,40.5,27.3,59,29.91,10.0,West,8.1,-,N/A,,Scattered Clouds,260,2013-04-10 10:15:00
4:35 AM,40.1,27.3,60,29.91,10.0,WSW,8.1,-,N/A,,Overcast,250,2013-04-10 10:35:00
4:55 AM,39.7,27.5,62,29.92,10.0,WSW,9.2,-,N/A,,Overcast,250,2013-04-10 10:55:00
5:15 AM,39.2,28.6,66,29.92,10.0,WSW,8.1,-,N/A,,Scattered Clouds,250,2013-04-10 11:15:00
5:35 AM,38.7,28.0,66,29.92,10.0,West,9.2,-,N/A,,Clear,260,2013-04-10 11:35:00
5:55 AM,38.3,28.4,68,29.93,10.0,West,8.1,-,N/A,,Clear,260,2013-04-10 11:55:00
6:15 AM,39.0,27.3,63,29.93,10.0,West,8.1,-,N/A,,Scattered Clouds,260,2013-04-10 12:15:00
6:35 AM,37.6,27.5,67,29.94,10.0,West,5.8,-,N/A,,Scattered Clouds,260,2013-04-10 12:35:00
6:55 AM,36.9,27.5,69,29.94,10.0,WSW,8.1,-,N/A,,Scattered Clouds,250,2013-04-10 12:55:00
7:15 AM,36.7,27.5,69,29.95,10.0,West,6.9,-,N/A,,Clear,260,2013-04-10 13:15:00
7:35 AM,38.5,28.6,68,29.95,10.0,West,3.5,-,N/A,,Clear,270,2013-04-10 13:35:00
7:55 AM,39.6,29.1,66,29.96,10.0,Calm,Calm,-,N/A,,Clear,0,2013-04-10 13:55:00
8:15 AM,41.7,29.3,61,29.97,10.0,Calm,Calm,-,N/A,,Clear,0,2013-04-10 14:15:00
8:35 AM,44.4,29.1,55,29.97,10.0,WNW,3.5,-,N/A,,Clear,300,2013-04-10 14:35:00
8:55 AM,48.0,28.4,47,29.97,10.0,West,8.1,-,N/A,,Scattered Clouds,280,2013-04-10 14:55:00
9:15 AM,49.8,28.0,43,29.97,10.0,West,12.7,-,N/A,,Clear,260,2013-04-10 15:15:00
9:35 AM,51.1,28.2,41,29.97,10.0,West,10.4,-,N/A,,Clear,260,2013-04-10 15:35:00
9:55 AM,52.7,26.1,36,29.97,10.0,WSW,15.0,19.6,N/A,,Clear,250,2013-04-10 15:55:00
10:15 AM,53.8,25.5,34,29.96,10.0,West,15.0,18.4,N/A,,Clear,270,2013-04-10 16:15:00
10:35 AM,54.7,24.3,31,29.96,10.0,West,13.8,18.4,N/A,,Clear,260,2013-04-10 16:35:00
11:15 AM,55.6,23.4,29,29.95,10.0,SW,10.4,16.1,N/A,,Clear,230,2013-04-10 17:15:00
11:35 AM,55.8,21.7,27,29.95,10.0,West,6.9,19.6,N/A,,Clear,280,2013-04-10 17:35:00
11:55 AM,56.5,22.3,27,29.95,10.0,SW,9.2,-,N/A,,Clear,220,2013-04-10 17:55:00
12:15 PM,57.7,21.4,24,29.94,10.0,WSW,8.1,21.9,N/A,,Clear,240,2013-04-10 18:15:00
12:35 PM,59.5,21.7,23,29.94,10.0,SW,12.7,18.4,N/A,,Scattered Clouds,230,2013-04-10 18:35:00
12:55 PM,58.1,21.0,24,29.93,10.0,WSW,15.0,21.9,N/A,,Scattered Clouds,250,2013-04-10 18:55:00
1:15 PM,59.2,21.0,23,29.92,10.0,West,17.3,20.7,N/A,,Scattered Clouds,260,2013-04-10 19:15:00
1:35 PM,60.1,20.1,21,29.91,10.0,WSW,11.5,19.6,N/A,,Scattered Clouds,240,2013-04-10 19:35:00
1:55 PM,60.1,20.1,21,29.91,10.0,West,10.4,24.2,N/A,,Scattered Clouds,260,2013-04-10 19:55:00
2:15 PM,61.3,18.1,19,29.90,10.0,West,13.8,19.6,N/A,,Mostly Cloudy,270,2013-04-10 20:15:00
2:35 PM,62.4,16.2,17,29.90,10.0,West,21.9,29.9,N/A,,Overcast,260,2013-04-10 20:35:00
2:55 PM,61.7,15.1,16,29.89,10.0,West,25.3,35.7,N/A,,Mostly Cloudy,270,2013-04-10 20:55:00
3:15 PM,62.6,16.5,17,29.88,10.0,West,24.2,33.4,N/A,,Scattered Clouds,260,2013-04-10 21:15:00
3:35 PM,62.4,16.2,17,29.88,10.0,West,19.6,38.0,N/A,,Scattered Clouds,260,2013-04-10 21:35:00
3:55 PM,60.8,16.9,18,29.88,10.0,West,19.6,35.7,N/A,,Scattered Clouds,260,2013-04-10 21:55:00
4:15 PM,60.8,16.2,18,29.88,10.0,West,21.9,29.9,N/A,,Scattered Clouds,260,2013-04-10 22:15:00
4:35 PM,61.2,16.2,17,29.88,10.0,WSW,19.6,29.9,N/A,,Scattered Clouds,240,2013-04-10 22:35:00
4:55 PM,61.7,16.5,17,29.88,10.0,West,24.2,36.8,N/A,,Scattered Clouds,260,2013-04-10 22:55:00
5:15 PM,61.0,17.1,18,29.88,10.0,West,19.6,34.5,N/A,,Scattered Clouds,270,2013-04-10 23:15:00
5:35 PM,60.6,18.0,19,29.88,10.0,West,26.5,34.5,N/A,,Scattered Clouds,270,2013-04-10 23:35:00
5:55 PM,60.3,18.3,20,29.88,10.0,West,26.5,33.4,N/A,,Scattered Clouds,270,2013-04-10 23:55:00
6:15 PM,59.2,18.7,21,29.88,10.0,West,26.5,34.5,N/A,,Clear,280,2013-04-11 00:15:00
6:35 PM,58.3,19.2,22,29.88,10.0,WSW,24.2,32.2,N/A,,Clear,250,2013-04-11 00:35:00
6:55 PM,57.6,19.8,23,29.90,10.0,West,18.4,26.5,N/A,,Clear,260,2013-04-11 00:55:00
7:15 PM,56.7,20.3,24,29.90,10.0,West,19.6,25.3,N/A,,Scattered Clouds,260,2013-04-11 01:15:00
7:35 PM,55.9,21.2,26,29.91,10.0,West,17.3,25.3,N/A,,Scattered Clouds,260,2013-04-11 01:35:00
7:55 PM,55.4,21.6,27,29.92,10.0,West,18.4,25.3,N/A,,Scattered Clouds,260,2013-04-11 01:55:00
8:15 PM,54.5,21.6,28,29.93,10.0,West,17.3,-,N/A,,Mostly Cloudy,270,2013-04-11 02:15:00
8:55 PM,54.5,22.1,28,29.94,10.0,West,16.1,26.5,N/A,,Overcast,280,2013-04-11 02:55:00
9:15 PM,54.1,22.1,29,29.95,10.0,West,17.3,21.9,N/A,,Overcast,280,2013-04-11 03:15:00
9:35 PM,53.8,23.0,30,29.96,10.0,WNW,15.0,24.2,N/A,,Overcast,290,2013-04-11 03:35:00
9:55 PM,53.2,23.5,32,29.97,10.0,WNW,13.8,20.7,N/A,,Overcast,290,2013-04-11 03:55:00
10:15 PM,52.7,23.4,32,29.99,10.0,NW,13.8,-,N/A,,Overcast,320,2013-04-11 04:15:00
10:35 PM,51.4,21.2,31,29.99,10.0,North,13.8,-,N/A,,Mostly Cloudy,350,2013-04-11 04:35:00
10:55 PM,50.2,21.0,32,29.99,10.0,North,10.4,-,N/A,,Scattered Clouds,360,2013-04-11 04:55:00
11:15 PM,49.5,20.5,32,29.99,10.0,North,12.7,18.4,N/A,,Clear,360,2013-04-11 05:15:00
11:35 PM,49.1,19.4,31,29.99,10.0,North,12.7,-,N/A,,Clear,360,2013-04-11 05:35:00
11:55 PM,48.4,18.9,31,29.99,10.0,North,11.5,17.3,N/A,,Clear,350,2013-04-11 05:55:00